Location: The Decker-Grebner-Van Zandt Observatory
(40.8442°N, 89.8218°W)
Time: 03:04:44
(UTC-06:00)

Starlink Launch 2 leader - Visible Passes

Search period start: 11 December 2019 00:00
Search period end: 21 December 2019 00:00
Orbit: 279 x 281 km, 53.0° (Epoch: 13 November)

Date Brightness Start Highest point End Pass type
(mag) Time Alt. Az. Time Alt. Az. Time Alt. Az.
11 Dec 4.3 05:25:08 24° SSE 05:25:08 24° SSE 05:26:19 10° SE visible
12 Dec 5.2 05:27:28 12° S 05:27:28 12° S 05:27:47 10° S visible
19 Dec 5.6 18:40:47 10° SW 18:40:55 11° SW 18:40:55 11° SW visible
20 Dec 5.5 18:42:38 10° WSW 18:43:13 15° WSW 18:43:13 15° WSW visible
